STARLINK-2051

decayed
NORAD ID: 47661 Int'l Des: 2021-012 Owner: SPXS Country: US Constellation: starlink
LEOCIRCULAR

关于 STARLINK-2051

正在加载描述...

高度历史

Altitude vs Time

uPlot chart will show altitude changes over time

两行轨道根数

1 47661U 21012AT 25031.98719416 .22395037 12487-4 44819-3 0 9992
2 47661 53.0290 25.2619 0005099 220.1207 244.9915 16.46855186219373
Epoch: Jan 31, 2025 • Age: 5526 hours

当前状态

Position data unavailable
发射日期 Feb 16, 2021
运行时间 4.5 years
衰减日期 Feb 1, 2025
类型 internet

技术详情

分类 Payload
质量 260.00 kg
干质量 248.00 kg
总质量 260.00 kg
长度 0.20 m
直径 2.80 m
跨度 9.00 m
形状 Box + pan
制造商 SPXS
平台类型 Starlink
阶段状态 Reentered
所有者/国家 SPXS/US

大型星座

Loading constellations...